OpenBCM V1.13 (Linux)

Packet Radio Mailbox

DB0FHN

[JN59NK Nuernberg]

 Login: GUEST





  
UA9FBV > KEPS     12.11.04 08:27l 277 Lines 7266 Bytes #999 (0) @ AMSAT
BID : ORB04316.D
Read: GUEST
Subj: Orbital Elements  04316.MICROS
Path: DB0FHN<DB0MRW<DB0HOT<OK0PBX<OK0PRG<OK0PCC<OK0PAD<OK0PPL<DB0RES<ER3KAZ<
      UA9FBV
Sent: 041112/0618Z @:UA9FBV.PRM.RUS.AS #:8766 [Perm] GATEWAY $:ORB04316.D
From: UA9FBV@UA9FBV.PRM.RUS.AS
To  : KEPS@AMSAT


HR AMSAT ORBITAL ELEMENTS FOR THE MICROSATS
FROM WA5QGD FORT WORTH,TX November 11, 2004
SEND SUBSCRIBE/UNSUBSCRIBE TO majordomo@amsat.org ONLY
BID: ORB04316.D
TO ALL RADIO AMATEURS BT

Satellite: UO-14
Catalog number: 20437
Epoch time:      04316.02907244
Element set:     635
Inclination:       98.2028 deg
RA of node:       331.8929 deg
Eccentricity:    0.0011527
Arg of perigee:   120.3638 deg
Mean anomaly:     239.8691 deg
Mean motion:   14.31381488 rev/day
Decay rate:       2.23e-06 rev/day^2
Epoch rev:           77282
Checksum:              302

Satellite: AO-16
Catalog number: 20439
Epoch time:      04315.58430274
Element set:     324
Inclination:       98.2320 deg
RA of node:       346.3051 deg
Eccentricity:    0.0011642
Arg of perigee:   129.3522 deg
Mean anomaly:     230.8718 deg
Mean motion:   14.31639466 rev/day
Decay rate:        9.9e-07 rev/day^2
Epoch rev:           77281
Checksum:              290

Satellite: WO-18
Catalog number: 20441
Epoch time:      04316.71852380
Element set:     515
Inclination:       98.2449 deg
RA of node:       351.5097 deg
Eccentricity:    0.0012435
Arg of perigee:   126.6315 deg
Mean anomaly:     233.6033 deg
Mean motion:   14.31714818 rev/day
Decay rate:        9.9e-07 rev/day^2
Epoch rev:           77303
Checksum:              291

Satellite: LO-19
Catalog number: 20442
Epoch time:      04315.78433876
Element set:     250
Inclination:       98.2538 deg
RA of node:       354.7847 deg
Eccentricity:    0.0012830
Arg of perigee:   128.6672 deg
Mean anomaly:     231.5643 deg
Mean motion:   14.31886057 rev/day
Decay rate:      -1.28e-06 rev/day^2
Epoch rev:           77296
Checksum:              327

Satellite: UO-22
Catalog number: 21575
Epoch time:      04316.21757861
Element set:     251
Inclination:       98.2131 deg
RA of node:       284.1574 deg
Eccentricity:    0.0007900
Arg of perigee:    33.9782 deg
Mean anomaly:     326.1911 deg
Mean motion:   14.39433596 rev/day
Decay rate:       4.56e-06 rev/day^2
Epoch rev:           69914
Checksum:              310

Satellite: KO-23
Catalog number: 22077
Epoch time:      04316.54061824
Element set:     310
Inclination:       66.0878 deg
RA of node:       242.2542 deg
Eccentricity:    0.0011679
Arg of perigee:   306.8184 deg
Mean anomaly:      53.1762 deg
Mean motion:   12.86427164 rev/day
Decay rate:       -3.7e-07 rev/day^2
Epoch rev:           57559
Checksum:              299

Satellite: AO-27
Catalog number: 22825
Epoch time:      04316.17346644
Element set:     985
Inclination:       98.2457 deg
RA of node:       317.3359 deg
Eccentricity:    0.0008497
Arg of perigee:   182.0547 deg
Mean anomaly:     178.0602 deg
Mean motion:   14.29096828 rev/day
Decay rate:       3.13e-06 rev/day^2
Epoch rev:           58008
Checksum:              331

Satellite: IO-26
Catalog number: 22826
Epoch time:      04315.68153116
Element set:     654
Inclination:       98.2412 deg
RA of node:       318.1587 deg
Eccentricity:    0.0008913
Arg of perigee:   182.6323 deg
Mean anomaly:     177.4794 deg
Mean motion:   14.29334780 rev/day
Decay rate:       5.43e-06 rev/day^2
Epoch rev:           58007
Checksum:              314

Satellite: KO-25
Catalog number: 22828
Epoch time:      04316.00690018
Element set:     919
Inclination:       98.2359 deg
RA of node:       318.6953 deg
Eccentricity:    0.0010231
Arg of perigee:   160.0627 deg
Mean anomaly:     200.0958 deg
Mean motion:   14.29652135 rev/day
Decay rate:       1.91e-06 rev/day^2
Epoch rev:           54834
Checksum:              293

Satellite: TO-31
Catalog number: 25396
Epoch time:      04316.67819882
Element set:     100
Inclination:       98.5596 deg
RA of node:        24.1549 deg
Eccentricity:    0.0003583
Arg of perigee:   100.1311 deg
Mean anomaly:     260.0319 deg
Mean motion:   14.23643369 rev/day
Decay rate:       -4.3e-07 rev/day^2
Epoch rev:           32946
Checksum:              291

Satellite: GO-32
Catalog number: 25397
Epoch time:      04316.53199424
Element set:     602
Inclination:       98.5509 deg
RA of node:        21.9340 deg
Eccentricity:    0.0002265
Arg of perigee:   112.8545 deg
Mean anomaly:     247.2876 deg
Mean motion:   14.23057788 rev/day
Decay rate:       -4.3e-07 rev/day^2
Epoch rev:           32937
Checksum:              310

Satellite: UO-36
Catalog number: 25693
Epoch time:      04316.80485311
Element set:     632
Inclination:       64.5594 deg
RA of node:       231.2647 deg
Eccentricity:    0.0043623
Arg of perigee:   239.3216 deg
Mean anomaly:     120.3556 deg
Mean motion:   14.78419405 rev/day
Decay rate:       8.36e-06 rev/day^2
Epoch rev:           29968
Checksum:              317

Satellite: SO-41
Catalog number: 26545
Epoch time:      04316.33304918
Element set:     925
Inclination:       64.5579 deg
RA of node:       248.6010 deg
Eccentricity:    0.0026127
Arg of perigee:   343.7796 deg
Mean anomaly:      16.2510 deg
Mean motion:   14.79926130 rev/day
Decay rate:      1.948e-05 rev/day^2
Epoch rev:           22268
Checksum:              310

Satellite: MO-46
Catalog number: 26548
Epoch time:      04315.98447053
Element set:      25
Inclination:       64.5579 deg
RA of node:       235.0059 deg
Eccentricity:    0.0025407
Arg of perigee:   329.0205 deg
Mean anomaly:      30.9405 deg
Mean motion:   14.82497123 rev/day
Decay rate:      2.417e-05 rev/day^2
Epoch rev:           22293
Checksum:              297

Satellite: SO-42
Catalog number: 26549
Epoch time:      04316.83471650
Element set:     983
Inclination:       64.5576 deg
RA of node:       254.4982 deg
Eccentricity:    0.0026766
Arg of perigee:   354.7812 deg
Mean anomaly:       5.3051 deg
Mean motion:   14.78817723 rev/day
Decay rate:      2.411e-05 rev/day^2
Epoch rev:           22261
Checksum:              316

Satellite: NO-44
Catalog number: 26931
Epoch time:      04315.79625401
Element set:     896
Inclination:       67.0538 deg
RA of node:        70.2438 deg
Eccentricity:    0.0007011
Arg of perigee:   269.2109 deg
Mean anomaly:      90.8203 deg
Mean motion:   14.29337530 rev/day
Decay rate:       2.27e-06 rev/day^2
Epoch rev:           16255
Checksum:              289

Satellite: AO-49
Catalog number: 27605
Epoch time:      04316.79786013
Element set:     583
Inclination:       64.5574 deg
RA of node:        76.2509 deg
Eccentricity:    0.0084760
Arg of perigee:   282.5830 deg
Mean anomaly:      76.5791 deg
Mean motion:   14.71972385 rev/day
Decay rate:      1.180e-05 rev/day^2
Epoch rev:           10185
Checksum:              333

Satellite: SO-50
Catalog number: 27607
Epoch time:      04315.85814218
Element set:     564
Inclination:       64.5571 deg
RA of node:        83.5344 deg
Eccentricity:    0.0085734
Arg of perigee:   281.6957 deg
Mean anomaly:      77.4562 deg
Mean motion:   14.70782818 rev/day
Decay rate:      1.649e-05 rev/day^2
Epoch rev:           10162
Checksum:              328

Satellite: AO-51
Catalog number: 28375
Epoch time:      04316.63693109
Element set:     106
Inclination:       98.2446 deg
RA of node:        21.4755 deg
Eccentricity:    0.0084502
Arg of perigee:   167.3543 deg
Mean anomaly:     192.9813 deg
Mean motion:   14.40409070 rev/day
Decay rate:       5.82e-06 rev/day^2
Epoch rev:            1929
Checksum:              302



Read previous mail | Read next mail


 11.09.2026 14:20:31lGo back Go up